Zurück zum Katalog

TITAN 4 CENTAUR R/B

AktivGEO
NORAD 26716·ROCKET BODY·🇺🇸 United States

Gestartet Feb 27, 2001 von Cape Canaveral Space Force Station

Loading…

TLE

AktuellSource: Space-Track

Epoche: Sep 13, 2026, 19:31 UTC

1 26716U 01009B   26256.81327889 -.00000264  00000-0  00000-0 0  9992
2 26716  12.6956  11.7333 0014879 151.1459 208.9582  1.00494475 27148

Verfolge TITAN 4 CENTAUR R/B in Echtzeit mit AllMySat

Download on the App Store